Regional Weather Roundup
Issued by NWS

Home | Current Version | Previous Version | Graphics & Text | Print | Product List | Glossary On
Versions: 1 2 3 4 5 6 7 8 9 10 11 12 13 14 15 16 17 18 19 20 21 22 23 24 25 26 27 28 29 30 31 32 33 34 35 36 37 38 39 40 41 42 43 44 45 46 47 48 49 50
000
ASUS45 KBOU 271507
RWRCO

WEATHER ROUNDUP FOR COLORADO
NATIONAL WEATHER SERVICE DENVER/BOULDER CO
900 AM MDT WED MAY 27 2015

NOTE: "FAIR" INDICATES FEW OR NO CLOUDS BELOW 12000 FEET WITH NO
SIGNIFICANT WEATHER AND/OR OBSTRUCTIONS TO VISIBILITY.

COZ001>005-013-030-031-271600-
...NORTHWEST COLORADO...

CITY           SKY/WX    TMP DP  RH WIND       PRES   REMARKS
CRAIG          MOSUNNY   56  43  61 SW7       30.18R
HAYDEN         CLOUDY    52  43  71 E9        30.19S
MEEKER         SUNNY     54  44  69 CALM      30.19S
MOUNT WERNER   NOT AVBL
STEAMBOAT SPGS PTSUNNY   49  44  84 E5        30.21S
WALDEN         CLOUDY    46  37  71 S10G17    30.23R
$$

COZ006>008-011-271600-
...WEST CENTRAL VALLEYS...

CITY           SKY/WX    TMP DP  RH WIND       PRES   REMARKS
GRAND JUNCTION SUNNY     56  49  77 S3        30.15R
MONTROSE       SUNNY     55  44  66 W3        30.19S
EAGLE          MOSUNNY   54  45  71 CALM      30.22F
RIFLE          SUNNY     54  45  71 CALM      30.19S
DELTA          SUNNY     57  47  69 E3        30.17S
NUCLA          SUNNY     54  43  66 N5        30.22S
$$

COZ017>023-064>068-271600-
...SOUTHWEST COLORADO...

CITY           SKY/WX    TMP DP  RH WIND       PRES   REMARKS
DURANGO        MOSUNNY   57  43  59 E5        30.23S
CORTEZ         SUNNY     58  43  57 CALM      30.18S
PAGOSA SPRINGS MOSUNNY   53  41  65 CALM      30.29S
TELLURIDE      PTSUNNY   48  38  67 CALM      30.33S
WOLF CREEK PAS NOT AVBL
$$

COZ009-010-012-014-032>034-037-058>063-271600-
...CENTRAL COLORADO...

CITY           SKY/WX    TMP DP  RH WIND       PRES   REMARKS
ASPEN          NOT AVBL
BUENA VISTA    MOSUNNY   54  35  49 SE7       30.25F
COPPER MTN     PTSUNNY   37  28  70 W24G33    30.39S
BERTHOUD PASS  FAIR      30  23  74 W28       30.39R WCI  16
COTTONWOOD PAS MOSUNNY   48  32  53 NW5       30.33S
GUNNISON       SUNNY     48  37  66 E3        30.31S
KREMMLING      MOSUNNY   54  39  58 CALM      30.22S
LEADVILLE      CLOUDY    45  29  53 S5        30.30S
SALIDA         MOSUNNY   60  35  40 SW12G17   30.30F
SUNLIGHT       MOSUNNY   41  34  75 CALM      30.39R
WILKERSON PASS SUNNY     37  32  81 SW7       30.39R
$$

COZ069>075-271600-
...SAN LUIS VALLEY/SANGRE DE CRISTO MOUNTAINS...

CITY           SKY/WX    TMP DP  RH WIND       PRES   REMARKS
ALAMOSA        SUNNY     54  39  57 VRB5      30.27S
LA VETA PASS   MOSUNNY  N/A N/A N/A MISG      30.37R
SAGUACHE       SUNNY     50  37  62 CALM      30.29S
$$

COZ035-036-038>040-271600-
...NORTHERN COLORADO FRONT RANGE...

CITY           SKY/WX    TMP DP  RH WIND       PRES   REMARKS
DENVER INTL AP MOSUNNY   62  45  53 SW6       30.09R
DMNS CITY PARK   N/A     66  42  41 NW6       30.08S
AURORA         MOSUNNY   62  41  45 SW8       30.09F
FRONT RANGE AP MOSUNNY   64  46  52 W9        30.10R
ERIE MUNI ARPT   N/A     61  50  68 E5        30.08S
BOULDER MUN AP PTSUNNY   59  50  72 N6        30.08S
CENTENNIAL     MOSUNNY   63  41  44 SW9       30.10S
BROOMFIELD     PTSUNNY   59  45  58 E5        30.10R
FORT COLLINS   MOSUNNY   63  50  63 CALM      30.08S
LONGMONT       PTSUNNY   65  50  57 CALM      30.10R
$$

COZ041-046-047-076>085-087-088-271600-
...PIKES PEAK/PALMER DIVIDE AND SOUTHERN FOOTHILLS...

CITY           SKY/WX    TMP DP  RH WIND       PRES   REMARKS
COLO. SPRINGS  MOSUNNY   56  47  71 E5        30.16S
A. F. ACADEMY  SUNNY     55  46  71 SE6       30.16F
ELLICOTT       SUNNY    N/A N/A N/A SW12      30.15S
FALCON         SUNNY     55  44  65 S10       30.20S
FORT CARSON    SUNNY     58  49  71 SE5       30.14S
LIMON          SUNNY     60  48  64 S13       30.12S
MONUMENT HILL  SUNNY     59  37  44 E13       30.17S
TRINIDAD       MOSUNNY   63  49  60 SW6       30.15S
$$

COZ042>045-048>051-090-091-271600-
...NORTHEAST COLORADO...

CITY           SKY/WX    TMP DP  RH WIND       PRES   REMARKS
GREELEY ARPT   SUNNY     64  54  68 CALM      30.08R
AKRON          MOSUNNY   62  50  64 S10       30.08S
BURLINGTON     MOSUNNY   64  55  72 S16       30.10R
WRAY           CLOUDY    61  53  74 SE10      30.09S
STERLING       MOSUNNY   59  54  82 CALM      30.06S
HOLYOKE        CLOUDY    61  52  72 SE14      30.09S
FORT MORGAN    MOSUNNY   60  48  64 SE5       30.07S
$$

COZ086-089-092>099-271600-
...SOUTHEAST COLORADO...

CITY           SKY/WX    TMP DP  RH WIND       PRES   REMARKS
PUEBLO         SUNNY     60  49  66 W6        30.11S
LA JUNTA       SUNNY     62  53  72 SW5       30.10S
LAMAR          SUNNY     70  54  56 SW14      30.07S
SPRINGFIELD      N/A     68  56  65 S14       30.12S
$$


USA.gov is the U.S. government's official web portal to all federal, state and local government web resources and services.